Easton, MD

7:46 AM EDT on September 26, 2017 (GMT -0400)
Easton / Newnam

Weather History for KESN - March, 2013

Change the Weather History Date:

Monday, March 11, 2013

  Actual Average Record
Temperature  
Mean Temperature 50 °F -  
Max Temperature 62 °F 55 °F 74 °F (1967)
Min Temperature 38 °F 35 °F 2 °F (1960)
Degree Days  
Heating Degree Days 15    
Moisture  
Dew Point 43 °F    
Average Humidity 92    
Maximum Humidity 100    
Minimum Humidity 63    
Precipitation  
Precipitation 0.00 in - - ()
Sea Level Pressure  
Sea Level Pressure 30.22 in    
Wind  
Wind Speed 7 mph (South)    
Max Wind Speed 17 mph    
Max Gust Speed 24 mph    
Visibility 5 miles    
Events Fog    
Averages and records for this station are not official NWS values.
T = Trace of Precipitation, MM = Missing Value Source: NWS Daily Summary

Daily Weather History Graph

Daily Weather History Graph

Search for Another Location

Airport or City:

Trip Planner

Search our weather history database for the weather conditions in past years. The results will help you decide how hot, cold, wet, or windy it might be!

Date:

Astronomy

Mar. 11, 2013 Rise Set
Actual Time 7:21 AM EDT 7:07 PM EDT
Civil Twilight 6:54 AM EDT 7:34 PM EDT
Nautical Twilight 6:24 AM EDT 8:05 PM EDT
Astronomical Twilight 5:53 AM EDT 8:36 PM EDT
Moon 6:54 AM EDT (3/11) 7:16 PM EDT (3/11)
Length of Visible Light 12h 39m
Length of Day
11h 46m
Waning Crescent, 0% of the Moon is Illuminated
Mar 11
Waning Crescent
Mar 11
New
Mar 19
First Quarter
Mar 27
Full
Apr 3
Last Quarter

Hourly Weather History & Observations

Time (EDT) Temp. Windchill Dew Point Humidity Pressure Visibility Wind Dir Wind Speed Gust Speed Precip Events Conditions
12:01 AM 39.2 °F 34.2 °F 39.2 °F 100% 30.32 in 5.0 mi SSE 6.9 mph - N/A   Clear
12:21 AM 39.0 °F 33.4 °F 39.0 °F 100% 30.31 in 3.0 mi SSE 8.1 mph - N/A   Mist
12:41 AM 38.5 °F 35.0 °F 38.5 °F 100% 30.31 in 7.0 mi South 4.6 mph - N/A   Clear
1:01 AM 38.5 °F 33.4 °F 38.5 °F 100% 30.31 in 7.0 mi SSE 6.9 mph - N/A   Clear
1:21 AM 38.5 °F 35.0 °F 38.5 °F 100% 30.31 in 7.0 mi SSE 4.6 mph - N/A   Scattered Clouds
1:41 AM 38.7 °F 32.9 °F 38.7 °F 100% 30.30 in 5.0 mi South 8.1 mph - N/A   Mostly Cloudy
2:01 AM 39.4 °F 34.5 °F 39.4 °F 100% 30.30 in 4.0 mi South 6.9 mph - N/A   Overcast
2:21 AM 39.7 °F 34.3 °F 39.7 °F 100% 30.29 in 2.5 mi SSE 8.1 mph - N/A   Overcast
2:41 AM 40.1 °F 34.7 °F 40.1 °F 100% 30.29 in 2.5 mi South 8.1 mph - N/A   Overcast
3:01 AM 40.5 °F 35.1 °F 40.5 °F 100% 30.28 in 2.5 mi South 8.1 mph - N/A   Overcast
3:22 AM 40.6 °F 36.7 °F 40.6 °F 100% 30.28 in 5.0 mi South 5.8 mph - N/A   Overcast
3:42 AM 40.3 °F 35.5 °F 40.3 °F 100% 30.27 in 4.0 mi SSE 6.9 mph - N/A   Overcast
4:02 AM 40.5 °F 36.5 °F 40.5 °F 100% 30.26 in 5.0 mi SSE 5.8 mph - N/A   Overcast
4:22 AM 40.6 °F 36.7 °F 40.6 °F 100% 30.26 in 3.0 mi South 5.8 mph - N/A   Overcast
4:42 AM 40.5 °F 35.1 °F 40.5 °F 100% 30.24 in 0.5 mi SSE 8.1 mph - N/A Fog Fog
5:02 AM 40.5 °F 36.5 °F 40.5 °F 100% 30.25 in 3.0 mi South 5.8 mph - N/A   Overcast
5:22 AM 40.5 °F 35.8 °F 40.5 °F 100% 30.25 in 5.0 mi South 6.9 mph - N/A   Overcast
5:42 AM 41.0 °F 38.0 °F 41.0 °F 100% 30.25 in 4.0 mi South 4.6 mph - N/A   Overcast
5:49 AM 41.0 °F 39.0 °F 41.0 °F 100% 30.25 in 3.0 mi South 3.5 mph - N/A   Overcast
6:02 AM 40.6 °F 38.6 °F 40.6 °F 100% 30.25 in 5.0 mi SSW 3.5 mph - N/A   Overcast
6:22 AM 41.0 °F - 41.0 °F 100% 30.25 in 4.0 mi Calm Calm - N/A   Overcast
6:42 AM 41.0 °F 39.0 °F 41.0 °F 100% 30.25 in 3.0 mi South 3.5 mph - N/A   Overcast
6:46 AM 41.0 °F 38.0 °F 41.0 °F 100% 30.25 in 3.0 mi South 4.6 mph - N/A   Overcast
7:02 AM 41.0 °F 39.0 °F 41.0 °F 100% 30.25 in 0.8 mi South 3.5 mph - N/A   Overcast
7:14 AM 41.0 °F 38.0 °F 41.0 °F 100% 30.24 in 0.2 mi SSE 4.6 mph - N/A Fog Fog
7:22 AM 40.6 °F 38.6 °F 40.6 °F 100% 30.25 in 0.5 mi South 3.5 mph - N/A Fog Fog
7:41 AM 41.0 °F 39.0 °F 41.0 °F 100% 30.26 in 0.5 mi SSW 3.5 mph - N/A Fog Fog
7:51 AM 41.0 °F 39.0 °F 41.0 °F 100% 30.26 in 0.2 mi South 3.5 mph - N/A Fog Fog
8:54 AM 41.0 °F 39.0 °F 41.0 °F 100% 30.24 in 0.5 mi South 3.5 mph - N/A Fog Fog
9:55 AM 46.4 °F 42.4 °F 46.4 °F 100% 30.25 in 4.0 mi SSW 8.1 mph - N/A   Overcast
10:51 AM 48.2 °F - 48.2 °F 100% 30.23 in 7.0 mi South 9.2 mph - N/A   Overcast
11:50 AM 55.4 °F - 48.2 °F 77% 30.21 in 10.0 mi SSW 9.2 mph - N/A   Mostly Cloudy
12:51 PM 59.0 °F - 48.2 °F 67% 30.20 in 10.0 mi SSW 12.7 mph - N/A   Mostly Cloudy
1:53 PM 59.0 °F - 50.0 °F 72% 30.17 in 10.0 mi South 11.5 mph - N/A   Mostly Cloudy
2:53 PM 62.6 °F - 50.0 °F 63% 30.14 in 10.0 mi South 16.1 mph 21.9 mph N/A   Overcast
3:53 PM 62.6 °F - 50.0 °F 63% 30.13 in 10.0 mi South 15.0 mph 18.4 mph N/A   Overcast
4:53 PM 60.8 °F - 50.0 °F 68% 30.11 in 10.0 mi South 17.3 mph 24.2 mph N/A   Overcast
5:53 PM 59.0 °F - 50.0 °F 72% 30.08 in 10.0 mi South 11.5 mph 17.3 mph N/A   Overcast
6:53 PM 57.2 °F - 50.0 °F 77% 30.10 in 10.0 mi South 8.1 mph - N/A   Overcast
7:53 PM 55.4 °F - 50.0 °F 82% 30.07 in 10.0 mi SSE 13.8 mph 18.4 mph N/A   Overcast
8:53 PM 55.4 °F - 50.0 °F 82% 30.06 in 10.0 mi SSE 12.7 mph 18.4 mph N/A   Overcast
11:04 PM 55.6 °F - 48.6 °F 77% 30.07 in 10.0 mi South 10.4 mph - N/A   Scattered Clouds
11:24 PM 56.3 °F - 48.6 °F 75% 30.07 in 10.0 mi South 11.5 mph 18.4 mph N/A   Mostly Cloudy
11:44 PM 56.5 °F - 48.7 °F 75% 30.07 in 10.0 mi South 11.5 mph 16.1 mph N/A   Mostly Cloudy